Regional Weather Roundup
Issued by NWS

Home | Current Version | Previous Version | Graphics & Text | Print | Product List | Glossary On
Versions: 1 2 3 4 5 6 7 8 9 10 11 12 13 14 15 16 17 18 19 20 21 22 23 24 25 26 27 28 29 30 31 32 33 34 35 36 37 38 39 40 41 42 43 44 45 46 47 48 49 50
000
ASUS44 KMEG 040010
RWRTN
TENNESSEE HOURLY STATE WEATHER ROUNDUP
NATIONAL WEATHER SERVICE MEMPHIS TN
600 PM CST SAT DEC 03 2016

TNZ002-004-019-021-049-052-054-088>092-040100-
WEST TENNESSEE

CITY           SKY/WX    TMP DP  RH WIND       PRES   REMARKS
MEMPHIS INTL   LGT RAIN  44  42  93 NE8       30.21S
NWS MEMPHIS      N/A     43 N/A N/A MISG        N/A
JACKSON        LGT RAIN  42  50 100 CALM      30.26R
DYERSBURG      CLOUDY   N/A N/A N/A CALM      30.26R
UNION CITY     CLOUDY    39  36  87 CALM      30.26R
PARIS          CLOUDY    39  32  75 NE6       30.26R WCI  35
HUNTINGDON     CLOUDY    41  37  87 CALM      30.25R
LEXINGTON      CLOUDY    41  37  87 CALM      30.25R
$$

TNZ008-025-027-028-033-062-065-066-040100-
NORTH MIDDLE TENNESSEE

CITY           SKY/WX    TMP DP  RH WIND       PRES   REMARKS
NASHVILLE      LGT RAIN  43  33  68 NE6       30.26F
PORTLAND       CLOUDY    41  32  70 CALM      30.27S
CLARKSVILLE    CLOUDY    42  31  64 NE5       30.28R
SMYRNA         LGT RAIN  42  34  73 E5        30.28R
CROSSVILLE     CLOUDY    39  30  70 NE5       30.23S
$$

TNZ061-075-076-078-094-096-097-040100-
SOUTH MIDDLE TENNESSEE

CITY           SKY/WX    TMP DP  RH WIND       PRES   REMARKS
FAYETTEVILLE   CLOUDY    41  39  93 NE6       30.24R
TULLAHOMA      CLOUDY    39  36  87 NE3       30.24S
WINCHESTER     CLOUDY    41  37  87 CALM      30.24S
MCMINNVILLE    CLOUDY    39  37  93 CALM      30.24S
COLUMBIA       CLOUDY   N/A N/A N/A CALM      30.23S
SHELBYVILLE    CLOUDY    41  39  93 CALM      30.26S
$$

TNZ017-018-042-046-047-040100-
NORTHEAST TENNESSEE

CITY           SKY/WX    TMP DP  RH WIND       PRES   REMARKS
TRI CITIES     CLOUDY    40  29  64 CALM      30.25F
ELIZABETHTON     N/A     39  32  75 CALM      30.24F
$$

TNZ012-013-036-069-073-074-040100-
CENTRAL EAST TENNESSEE

CITY           SKY/WX    TMP DP  RH WIND       PRES   REMARKS
KNOXVILLE      CLOUDY    44  32  62 NE6       30.24S
OAK RIDGE      MOCLDY    44  31  60 CALM      30.27S
DOWNTOWN KNOXV CLOUDY    45  34  65 CALM      30.26S
GATLINBURG     CLEAR     41  30  65 NE5       30.24F
MORRISTOWN     MOCLDY    41  32  70 CALM      30.24S
JACKSBORO      CLOUDY    41  34  75 CALM      30.29S
$$

TNZ083-085-099-040100-
SOUTHEAST TENNESSEE

CITY           SKY/WX    TMP DP  RH WIND       PRES   REMARKS
CHATTANOOGA    LGT RAIN  45  35  68 CALM      30.27R
$$

SKY/WX REPORTED AS FAIR MEANS FEW OR NO CLOUDS BELOW
12 THOUSAND FEET.





USA.gov is the U.S. government's official web portal to all federal, state and local government web resources and services.